Lexington Weather

Lexington, Massachusetts, USA

36°F
1/28/2020 6:55am 
  • Lexington Conditions: Overcast
  • Temperature: 35.8°F / 2.1°CColder 0.5°F than last hour.
  • Dew Point: 29.3°FDecreased 0.5°Fsince last hour.
  • Relative Humidity: 77
  • Wind: Wind from NW NW 3 mph, 10-min avg: 1 mph, gust: 4 mph
  • Barometer: 29.66 inRising 0.02  inHg/hr Rising Slowly
  • Visibility: 10 miles
  • Rain Today: 0.00 in
  •   

Regional Weather Roundup
for Boston / Norton, MA

        
000
ASUS41 KBOX 261601
RWRBOX

REGIONAL WEATHER ROUNDUP
NATIONAL WEATHER SERVICE BOSTON/NORTON MA
1100 AM EST SUN JAN 26 2020

NOTE:  "FAIR" INDICATES FEW OR NO CLOUDS BELOW 12,000 FEET WITH NO 
SIGNIFICANT WEATHER AND/OR OBSTRUCTIONS TO VISIBILITY.

MAZALL-261700-
EASTERN MASSACHUSETTS
  
CITY           SKY/WX    TMP DP  RH WIND       PRES   REMARKS
BOSTON         FAIR      47  32  56 W15G22    29.69F                  
BEVERLY        FAIR      44  34  67 W15G22    29.66F                  
LAWRENCE       FAIR      44  35  70 W14       29.68F                  
BEDFORD        FAIR      46  31  55 W14G20    29.68F                  
BLUE HILL        N/A     42  31  64 W12G24    29.67F                  
NORWOOD        FAIR      49  32  52 W12       29.69F                  
MARSHFIELD     NOT AVBL                                               
PLYMOUTH       FAIR      45  35  68 W14       29.70F                  
TAUNTON        FAIR      45  31  58 W12G17    29.71F                  
NEW BEDFORD    FAIR      44  33  65 W13       29.71F                  
$$

MAZALL-261700-
CAPE COD AND THE ISLANDS
  
CITY           SKY/WX    TMP DP  RH WIND       PRES   REMARKS
FALMOUTH       PTSUNNY   45  36  70 W14       29.71F                  
HYANNIS        NOT AVBL                                               
CHATHAM        CLOUDY    43  40  89 SW5       29.71F                  
PROVINCETOWN   FAIR      44  38  79 W14       29.70F                  
NANTUCKET      FAIR      43  37  79 W15       29.73F                  
MARTHAS VNYRD  FAIR      44  34  67 W13G22    29.72F                  
$$
 
MAZALL-261700-
CENTRAL AND WESTERN MASSACHUSETTS
  
CITY           SKY/WX    TMP DP  RH WIND       PRES   REMARKS
WORCESTER      FAIR      40  30  67 W15G25    29.68F WCI  32          
FITCHBURG      FAIR      43  30  60 NW17G25   29.69F                  
ORANGE         FAIR      43  29  57 SW5       29.70F                  
SPRINGFIELD    PTSUNNY   42  33  68 SW6       29.71F                  
WESTFIELD      CLOUDY    44  33  65 SW10      29.72F                  
NORTH ADAMS    NOT AVBL                                               
PITTSFIELD     CLOUDY    36  32  85 SW8       29.69S WCI  30          
$$
 
RIZALL-261700-
RHODE ISLAND
  
CITY           SKY/WX    TMP DP  RH WIND       PRES   REMARKS
PROVIDENCE     FAIR      47  31  53 W16       29.72F                  
NEWPORT        FAIR      46  32  58 W9        29.72F                  
BLOCK ISLAND   FAIR      43  37  79 W13       29.76F                  
SMITHFIELD     FAIR      45  31  58 W13       29.70F                  
WESTERLY       FAIR      46  35  65 W12G17    29.75F                  
$$
 
CTZALL-261700-
CONNECTICUT
  
CITY           SKY/WX    TMP DP  RH WIND       PRES   REMARKS
BRADLEY INTL   PTSUNNY   46  36  68 W7        29.73F                  
HARTFORD       FAIR      44  35  70 SW8       29.75F                  
BRIDGEPORT     FAIR      42  36  79 SW13      29.78F                  
DANBURY        PTSUNNY   41  31  67 W10G20    29.77F                  
GROTON         NOT AVBL                                               
NEW HAVEN      FAIR      44  37  76 SW8       29.77F                  
CHESTER        NOT AVBL                                               
MERIDEN        FAIR      43  33  68 SW9G18    29.75F                  
WILLIMANTIC    FAIR      44  33  65 W7        29.74F                  
OXFORD         PTSUNNY   39  34  82 VRB7      29.75F                  
$$

MEZ002-015-021-024-NHZ003-005-008-011-012-014-VTZ005-008-261700-
NORTHERN NEW ENGLAND
  
CITY           SKY/WX    TMP DP  RH WIND       PRES   REMARKS
PORTLAND ME    CLOUDY    42  37  82 NW5       29.60F                  
BANGOR ME      LGT RAIN  41  41 100 N6        29.53F VSB 1/2          
CONCORD NH     CLOUDY    41  32  70 NW13      29.65F                  
MANCHESTER NH  FAIR      44  33  65 W8        29.65F                  
NASHUA NH      FAIR      44  31  60 W13       29.67F                  
PORTSMOUTH NH  PTSUNNY   42  41  96 W13       29.63S                  
JAFFREY NH     FAIR      40  29  64 W9G16     29.66F                  
KEENE NH       FAIR      41  33  73 SW5       29.68F                  
BURLINGTON VT  CLOUDY    36  33  89 S8        29.65F WCI  30          
MT. WASHINGTON FOG       23  23 100 W20         N/A  VSB 1/8 WCI   8  
$$

NYZ052-076-261700-
EASTERN NEW YORK
  
CITY           SKY/WX    TMP DP  RH WIND       PRES   REMARKS
ALBANY         DRIZZLE   37  32  82 W6        29.76S                  
NEW YORK CITY  FAIR      43  30  60 W8        29.81F                  
$$
 
ANZALL-261700-
MARINE OBSERVATIONS
  
STATION/POSITION TIME  TEMP    WIND        PRES    VSBY  WAVE
                       AIR SEA DIR/SP/G                  HT/PER
                 (UTC) (F)     (DEG/KT/KT) (MB)    (MI)  (FT/S)
BOSTON BUOY      1450   42 43  260/ 16/ 17 1004.7          6/10
BUZZARDS BAY     1500   40     280/ 16/ 17 1007.8R
NANTUCKET SOUND  NOT AVBL
MASS BAY-STELLWA 1504   40 41  290/ 16/ 19 1002.9S  1 7/8  7/ 8
ISLE OF SHOALS   1500   41     270/ 15/ 16 1003.4F
S OF BLOCK IS    1530      44                N/A           7/10
$$

......................KEY.........................
  SKY/WX - SKY CONDITION/PRESENT WEATHER
  TMP    - TEMPERATURE IN FAHRENHEIT
  DWPT   - DEWPOINT IN FAHRENHEIT
  RH     - RELATIVE HUMIDITY IN PERCENT
  WIND   - DIRECTION AND SPEED IN MPH
  PRES   - MEAN SEA LEVEL PRESSURE IN INCHES OF HG
  WCI    - WIND CHILL INDEX
  VSB    - VISIBILITY IN MILES
  HX     - HEAT INDEX
  TC     - TEMPERATURE IN CELSIUS
  VRB    - VARIABLE WIND DIRECTION
  N/A    - NOT AVAILABLE
  
      

Other recent Regional Weather Roundups

Tue Jan 28, 6:10am

Tue Jan 28, 6:01am

Tue Jan 28, 5:10am

Tue Jan 28, 5:00am

Tue Jan 28, 4:10am

Tue Jan 28, 4:00am

Tue Jan 28, 3:10am

Tue Jan 28, 3:01am

Tue Jan 28, 2:10am

Tue Jan 28, 2:00am

Tue Jan 28, 1:10am

Tue Jan 28, 1:00am

Tue Jan 28, 12:10am

Tue Jan 28, 12:01am

Mon Jan 27, 11:10pm

Mon Jan 27, 11:00pm

Mon Jan 27, 10:10pm

Mon Jan 27, 10:00pm

Mon Jan 27, 9:10pm

Mon Jan 27, 9:00pm

Mon Jan 27, 8:10pm

Mon Jan 27, 8:01pm

Mon Jan 27, 7:10pm

Mon Jan 27, 7:00pm

Mon Jan 27, 6:10pm

Mon Jan 27, 6:00pm

Mon Jan 27, 5:10pm

Mon Jan 27, 5:00pm

Mon Jan 27, 4:10pm

Mon Jan 27, 4:00pm

Mon Jan 27, 3:10pm

Mon Jan 27, 3:00pm

Mon Jan 27, 2:10pm

Mon Jan 27, 2:00pm

Mon Jan 27, 1:10pm

Mon Jan 27, 1:00pm

Mon Jan 27, 12:10pm

Mon Jan 27, 12:00pm

Mon Jan 27, 11:10am

Mon Jan 27, 11:01am

Mon Jan 27, 10:10am

Mon Jan 27, 10:00am

Mon Jan 27, 9:10am

Mon Jan 27, 9:00am

Mon Jan 27, 8:10am

Mon Jan 27, 8:00am

Mon Jan 27, 7:10am

Mon Jan 27, 7:00am

Mon Jan 27, 6:10am

Mon Jan 27, 6:00am

Mon Jan 27, 5:10am

Mon Jan 27, 5:00am

Mon Jan 27, 4:10am

Mon Jan 27, 4:01am

Mon Jan 27, 3:10am

Mon Jan 27, 3:00am

Mon Jan 27, 2:10am

Mon Jan 27, 2:00am

Mon Jan 27, 1:10am

Mon Jan 27, 1:00am

Mon Jan 27, 12:10am

Mon Jan 27, 12:00am

Sun Jan 26, 11:10pm

Sun Jan 26, 11:00pm

Sun Jan 26, 10:10pm

Sun Jan 26, 10:00pm

Sun Jan 26, 9:10pm

Sun Jan 26, 9:01pm

Sun Jan 26, 8:10pm

Sun Jan 26, 8:00pm

Sun Jan 26, 7:10pm

Sun Jan 26, 7:00pm

Sun Jan 26, 6:10pm

Sun Jan 26, 6:01pm

Sun Jan 26, 5:10pm

Sun Jan 26, 5:01pm

Sun Jan 26, 4:10pm

Sun Jan 26, 4:00pm

Sun Jan 26, 3:10pm

Sun Jan 26, 3:01pm

Sun Jan 26, 2:10pm

Sun Jan 26, 2:01pm

Sun Jan 26, 1:10pm

Sun Jan 26, 1:00pm

Sun Jan 26, 12:10pm

Sun Jan 26, 12:00pm

Sun Jan 26, 11:10am

Sun Jan 26, 10:10am

Sun Jan 26, 10:01am

Sun Jan 26, 9:10am

Sun Jan 26, 9:00am

Sun Jan 26, 8:10am

Sun Jan 26, 8:00am

Sun Jan 26, 7:10am

Sun Jan 26, 7:00am

Sun Jan 26, 6:10am

Sun Jan 26, 6:00am

Sun Jan 26, 5:10am

Sun Jan 26, 5:00am

Sun Jan 26, 4:10am

Sun Jan 26, 4:01am

Sun Jan 26, 3:10am

Sun Jan 26, 3:01am

Sun Jan 26, 2:10am

Sun Jan 26, 2:00am

Sun Jan 26, 1:10am

Sun Jan 26, 1:00am

Sun Jan 26, 12:10am

Sun Jan 26, 12:00am

Sat Jan 25, 11:10pm

Sat Jan 25, 11:00pm

Sat Jan 25, 10:10pm

Sat Jan 25, 10:01pm

Sat Jan 25, 9:10pm

Sat Jan 25, 9:01pm

Sat Jan 25, 8:10pm

Sat Jan 25, 8:01pm

Sat Jan 25, 7:10pm

Sat Jan 25, 7:01pm

Sat Jan 25, 6:10pm

Sat Jan 25, 6:01pm

Sat Jan 25, 5:10pm

Sat Jan 25, 5:01pm

Sat Jan 25, 4:10pm

Sat Jan 25, 4:00pm

Sat Jan 25, 3:10pm

Sat Jan 25, 3:01pm

Sat Jan 25, 2:10pm

Sat Jan 25, 2:00pm

Sat Jan 25, 1:10pm

Sat Jan 25, 1:00pm

Sat Jan 25, 12:10pm

Sat Jan 25, 12:00pm

Sat Jan 25, 11:10am

Sat Jan 25, 11:00am

Sat Jan 25, 10:10am

Sat Jan 25, 10:00am

Sat Jan 25, 9:10am

Sat Jan 25, 9:00am

Sat Jan 25, 8:10am

Sat Jan 25, 8:01am

Sat Jan 25, 7:10am

Sat Jan 25, 7:00am

Meta data:

ID: a8d3d675-3773-4dad-8119-cdd2a1021280
Link: https://api.weather.gov/products/a8d3d675-3773-4dad-8119-cdd2a1021280